Regional Weather Roundup
Issued by NWS

Home | Current Version | Previous Version | Text Only | Print | Product List | Glossary On
Versions: 1 2 3 4 5 6 7 8 9 10 11 12 13 14 15 16 17 18 19 20 21 22 23 24 25 26 27 28 29 30 31 32 33 34 35 36 37 38 39 40 41 42 43 44 45 46 47 48 49 50
000
ASUS43 KLSX 011459
RWRMO

WEATHER SUMMARY FOR MISSOURI
NATIONAL WEATHER SERVICE SPRINGFIELD MO
1000 AM CDT WED APR 01 2015

NOTE: "FAIR" INDICATES FEW OR NO CLOUDS BELOW 12,000 FEET WITH NO
       SIGNIFICANT WEATHER AND/OR OBSTRUCTIONS TO VISIBILITY.
       CURRENT SKY AND/OR WEATHER CONDITIONS ARE NOT AVAILABLE FOR
       CHILLICOTHE AND FARMINGTON.

MOZ001>031-035>038-043-044-053-054-011600-
...NORTHERN AND WESTERN MISSOURI...

CITY           SKY/WX    TMP DP  RH WIND       PRES   REMARKS
KANSAS CTY INT PTSUNNY   63  44  50 SE17      29.87S
KANSAS C DTWN  CLOUDY    64  43  46 SE9       29.87F
LEE`S SUMMIT   PTSUNNY   64  46  52 SE14G21   29.89F
ST JOSEPH      MOSUNNY   63  42  46 SE7       29.86F
CHILLICOTHE      N/A     64  39  39 S14G24    29.93S
KIRKSVILLE     MOSUNNY   67  37  33 S16       29.96R

$$
MOZ066>068-077>081-088>096-101>105-011600-
...SOUTHWEST MISSOURI...

CITY           SKY/WX    TMP DP  RH WIND       PRES   REMARKS
SPRINGFIELD    MOSUNNY   64  51  62 E22G31    29.92F

$$
MOZ032>034-039>042-045>050-055>058-069>072-011600-
...CENTRAL MISSOURI...

CITY           SKY/WX    TMP DP  RH WIND       PRES   REMARKS
COLUMBIA       PTSUNNY   64  38  38 S21G26    29.99R
JEFFERSON CITY MOSUNNY   64  39  39 SE12      29.99S
ROLLA          SUNNY     63  36  36 S15G24    30.01R
SEDALIA        PTSUNNY   66  37  34 S21G28    29.94F
OSAGE BEACH    MOSUNNY   66  36  32 SE12      29.98F

$$
MOZ051-052-059>065-011600-
...EAST CENTRAL MISSOURI...

CITY           SKY/WX    TMP DP  RH WIND       PRES   REMARKS
ST LOUIS INTL  PTSUNNY   65  36  34 S15       30.04R
SPIRIT OF STL  PTSUNNY   64  37  36 S8        30.02R
ST CHARLES     MOSUNNY   63  42  46 SE3       30.02S

$$
MOZ072>076-082>087-097>100-106>115-011600-
...SOUTH CENTRAL AND SOUTHEAST MISSOURI...

CITY           SKY/WX    TMP DP  RH WIND       PRES   REMARKS
CAPE GIRARDEAU MOSUNNY   62  43  49 SE9       30.07R
FARMINGTON     MOSUNNY   63  39  42 S10       30.09S
POPLAR BLUFF   MOSUNNY   61  44  53 SE7       30.06R
WEST PLAINS    PTSUNNY   64  39  39 SE13G23   30.03S

$$


USA.gov is the U.S. government's official web portal to all federal, state and local government web resources and services.